Hourly Data Report for July 29, 2021

BONAVISTA
NEWFOUNDLAND
Current Station Operator: ECCC - MSC

48°40'02.000" N
53°06'51.000" W
25.60 m
8400601
71178
AVA

Download Data

Hourly Data (July 2021)
Hourly Data Report for July 29, 2021
TIME
LST
Temp Definition
°C
Dew Point Definition
°C
Rel Hum Definition
%
Precip. Amount Definition
mm

Wind Dir Definition
10's deg

Wind Spd Definition
km/h
Visibility Definition
km
Stn Press Definition
kPa
Hmdx Definition


Wind Chill Definition


Weather Definition


00:30 17.9 16.6 92 0.0 21 22   100.60     LegendNANA
01:30 18.2 16.6 90 0.0 21 27   100.60     LegendNANA
02:30 18.0 16.3 90 0.0 21 30   100.57     LegendNANA
03:30 17.3 15.9 92 0.0 21 23   100.52     LegendNANA
04:30 17.1 15.3 89 0.0 22 20   100.55     LegendNANA
05:30 17.0 15.3 90 0.0 22 21   100.53     LegendNANA
06:30 17.1 15.1 88 0.0 22 23   100.52     LegendNANA
07:30 16.0 14.9 93 0.0 23 18   100.54     LegendNANA
08:30 15.9 14.9 94 0.0 23 19   100.55     LegendNANA
09:30 16.7 15.8 94 1.4 20 13   100.55     LegendNANA
10:30 16.2 15.6 96 0.6 18 12   100.53     LegendNANA
11:30 16.7 15.8 94 0.3 20 16   100.51     LegendNANA
12:30 15.8 15.0 95 0.0 28 2   100.50     LegendNANA
13:30 18.1 15.1 83 0.0 25 7   100.47     LegendNANA
14:30 19.9 14.9 73 0.0 26 7   100.42     LegendNANA
15:30 21.9 12.5 55 0.0 27 6   100.40     LegendNANA
16:30 22.3 9.3 44 0.0 28 5   100.38     LegendNANA
17:30 22.1 9.7 45 0.0 25 7   100.36     LegendNANA
18:30 20.8 9.4 48 0.0 23 8   100.39     LegendNANA
19:30 18.3 12.7 70 0.0 24 20   100.43     LegendNANA
20:30 17.3 12.9 75 0.0 23 25   100.52     LegendNANA
21:30 17.1 13.0 77 0.0 23 32   100.62     LegendNANA
22:30 16.6 13.1 80 0.0 24 34   100.73     LegendNANA
23:30 16.4 11.2 71 0.0 27 37   100.79     LegendNANA

Notes on Data Quality.

Legend

  • E = Estimated
  • M = Missing
  • NA = Not Available*
  • [empty] = Indicates an unobserved value
Date modified: